TPC318 KLVS-KASE

Flight info

Callsign TPC318
Flight time 1h 32m
Altitude 18000
Route ALS KANON HAREI DBL
Aircraft EAST/L-V/N

Departure

Time 2026-05-07 19:59
Airport Las Vegas Municipal Airport (KLVS)

Arrival

Time 2026-05-07 21:31
Airport Aspen-Pitkin County Airport (Sardy Field) (KASE)
Time Latitude Longitude Altitude Speed Heading
2026-05-07 19:39 35.65256 -105.14741 6863 ft 0 kts 76°
2026-05-07 19:53 35.65253 -105.14718 6870 ft 4 kts 135°
2026-05-07 19:54 35.65224 -105.14704 6866 ft 4 kts 146°
2026-05-07 19:54 35.65214 -105.14683 6867 ft 1 kts 101°
2026-05-07 19:54 35.65168 -105.14659 6861 ft 13 kts 180°
2026-05-07 19:54 35.65081 -105.14659 6858 ft 11 kts 180°
2026-05-07 19:55 35.65009 -105.14677 6856 ft 10 kts 208°
2026-05-07 19:55 35.64915 -105.14755 6859 ft 18 kts 214°
2026-05-07 19:55 35.64875 -105.14783 6851 ft 0 kts 184°
2026-05-07 19:56 35.64838 -105.14743 6848 ft 9 kts 83°
2026-05-07 19:56 35.65029 -105.14569 6858 ft 63 kts 35°
2026-05-07 19:56 35.65500 -105.14164 6873 ft 96 kts 33°
2026-05-07 19:56 35.66042 -105.13645 6925 ft 102 kts 38°
2026-05-07 19:57 35.66606 -105.13114 6977 ft 104 kts 37°
2026-05-07 19:57 35.67179 -105.12569 7048 ft 104 kts 37°
2026-05-07 19:57 35.67786 -105.12024 7084 ft 107 kts 35°
2026-05-07 19:57 35.68431 -105.11549 7154 ft 109 kts 23°
2026-05-07 19:58 35.69179 -105.11305 7176 ft 119 kts
2026-05-07 19:58 35.70028 -105.11338 7363 ft 126 kts 348°
2026-05-07 19:58 35.70890 -105.11850 7329 ft 147 kts 327°
2026-05-07 19:58 35.71793 -105.12533 7381 ft 161 kts 326°
2026-05-07 19:59 35.72757 -105.13268 7504 ft 166 kts 326°
2026-05-07 19:59 35.73747 -105.14017 7663 ft 168 kts 326°
2026-05-07 19:59 35.74757 -105.14775 7852 ft 171 kts 326°
2026-05-07 19:59 35.75771 -105.15536 8057 ft 171 kts 326°
2026-05-07 20:00 35.76777 -105.16300 8233 ft 169 kts 326°
2026-05-07 20:00 35.77771 -105.17060 8386 ft 168 kts 326°
2026-05-07 20:00 35.78780 -105.17832 8527 ft 173 kts 326°
2026-05-07 20:00 35.79802 -105.18610 8657 ft 174 kts 326°
2026-05-07 20:01 35.80832 -105.19389 8800 ft 173 kts 326°
2026-05-07 20:01 35.81855 -105.20164 8922 ft 172 kts 326°
2026-05-07 20:01 35.82865 -105.20944 9033 ft 172 kts 326°
2026-05-07 20:01 35.83886 -105.21714 9141 ft 173 kts 330°
2026-05-07 20:02 35.85042 -105.22146 9230 ft 175 kts 353°
2026-05-07 20:02 35.86257 -105.22240 9283 ft 175 kts 355°
2026-05-07 20:02 35.87466 -105.22420 9466 ft 174 kts 349°
2026-05-07 20:02 35.88643 -105.22742 9625 ft 173 kts 343°
2026-05-07 20:03 35.89784 -105.23198 9777 ft 173 kts 338°
2026-05-07 20:03 35.90907 -105.23722 9902 ft 173 kts 338°
2026-05-07 20:03 35.92028 -105.24262 10039 ft 173 kts 336°
2026-05-07 20:03 35.93145 -105.24800 10164 ft 172 kts 337°
2026-05-07 20:04 35.94257 -105.25323 10278 ft 170 kts 338°
2026-05-07 20:04 35.95365 -105.25831 10405 ft 170 kts 338°
2026-05-07 20:04 35.96483 -105.26315 10489 ft 170 kts 338°
2026-05-07 20:04 35.97600 -105.26790 10572 ft 170 kts 339°
2026-05-07 20:05 35.98716 -105.27256 10669 ft 169 kts 339°
2026-05-07 20:05 35.99837 -105.27699 10807 ft 170 kts 340°
2026-05-07 20:05 36.00958 -105.28117 10872 ft 167 kts 340°
2026-05-07 20:05 36.02070 -105.28529 10949 ft 166 kts 340°
2026-05-07 20:06 36.03158 -105.28950 11012 ft 166 kts 339°
2026-05-07 20:06 36.04254 -105.29372 11082 ft 165 kts 339°
2026-05-07 20:06 36.05346 -105.29802 11153 ft 165 kts 339°
2026-05-07 20:06 36.06442 -105.30244 11260 ft 166 kts 339°
2026-05-07 20:07 36.07538 -105.30680 11319 ft 165 kts 340°
2026-05-07 20:07 36.08625 -105.31092 11388 ft 164 kts 339°
2026-05-07 20:07 36.09710 -105.31513 11456 ft 163 kts 339°
2026-05-07 20:07 36.10793 -105.31941 11559 ft 164 kts 339°
2026-05-07 20:08 36.11881 -105.32362 11620 ft 164 kts 339°
2026-05-07 20:08 36.12967 -105.32783 11703 ft 163 kts 339°
2026-05-07 20:08 36.14047 -105.33226 11791 ft 163 kts 339°
2026-05-07 20:08 36.15122 -105.33663 11902 ft 163 kts 339°
2026-05-07 20:09 36.16194 -105.34083 12020 ft 161 kts 339°
2026-05-07 20:09 36.17267 -105.34509 12142 ft 162 kts 339°
2026-05-07 20:09 36.18338 -105.34944 12245 ft 162 kts 339°
2026-05-07 20:10 36.20485 -105.35772 12347 ft 162 kts 339°
2026-05-07 20:10 36.21562 -105.36185 12390 ft 163 kts 339°
2026-05-07 20:10 36.22641 -105.36597 12465 ft 162 kts 339°
2026-05-07 20:10 36.23718 -105.37013 12543 ft 159 kts 338°
2026-05-07 20:11 36.24775 -105.37407 12609 ft 159 kts 338°
2026-05-07 20:11 36.25837 -105.37828 12750 ft 160 kts 337°
2026-05-07 20:11 36.26894 -105.38253 12813 ft 160 kts 338°
2026-05-07 20:11 36.27946 -105.38656 12885 ft 158 kts 337°
2026-05-07 20:12 36.28999 -105.39084 12966 ft 159 kts 337°
2026-05-07 20:12 36.30048 -105.39535 13022 ft 158 kts 337°
2026-05-07 20:12 36.31088 -105.39966 13088 ft 157 kts 338°
2026-05-07 20:12 36.32132 -105.40374 13157 ft 158 kts 338°
2026-05-07 20:13 36.32824 -105.40649 13192 ft 159 kts 338°
2026-05-07 20:13 36.33876 -105.41079 13258 ft 158 kts 338°
2026-05-07 20:13 36.34928 -105.41492 13315 ft 159 kts 338°
2026-05-07 20:13 36.36314 -105.42017 13403 ft 158 kts 338°
2026-05-07 20:14 36.37022 -105.42300 13455 ft 159 kts 338°
2026-05-07 20:14 36.38413 -105.42855 13522 ft 159 kts 338°
2026-05-07 20:14 36.39469 -105.43258 13562 ft 159 kts 338°
2026-05-07 20:14 36.40180 -105.43535 13593 ft 158 kts 338°
2026-05-07 20:15 36.41236 -105.43961 13637 ft 161 kts 338°
2026-05-07 20:15 36.42289 -105.44376 13653 ft 159 kts 338°
2026-05-07 20:15 36.43335 -105.44772 13704 ft 156 kts 338°
2026-05-07 20:15 36.44374 -105.45184 13752 ft 157 kts 337°
2026-05-07 20:16 36.45399 -105.45603 13782 ft 157 kts 337°
2026-05-07 20:16 36.46435 -105.46027 13839 ft 154 kts 338°
2026-05-07 20:16 36.47446 -105.46439 13880 ft 153 kts 338°
2026-05-07 20:16 36.48461 -105.46848 13902 ft 154 kts 338°
2026-05-07 20:17 36.49477 -105.47267 13973 ft 153 kts 338°
2026-05-07 20:17 36.50498 -105.47677 14101 ft 154 kts 339°
2026-05-07 20:17 36.51517 -105.48076 14133 ft 154 kts 339°
2026-05-07 20:17 36.52538 -105.48469 14161 ft 154 kts 339°
2026-05-07 20:18 36.53553 -105.48872 14190 ft 153 kts 339°
2026-05-07 20:18 36.54571 -105.49257 14226 ft 153 kts 339°
2026-05-07 20:18 36.55587 -105.49642 14268 ft 153 kts 339°
2026-05-07 20:18 36.56603 -105.50050 14238 ft 153 kts 339°
2026-05-07 20:19 36.57614 -105.50451 14271 ft 153 kts 338°
2026-05-07 20:19 36.58627 -105.50852 14338 ft 153 kts 338°
2026-05-07 20:19 36.59636 -105.51260 14367 ft 153 kts 338°
2026-05-07 20:19 36.60652 -105.51676 14398 ft 154 kts 338°
2026-05-07 20:20 36.61665 -105.52088 14367 ft 152 kts 338°
2026-05-07 20:20 36.62666 -105.52496 14379 ft 152 kts 339°
2026-05-07 20:20 36.63679 -105.52893 14381 ft 153 kts 339°
2026-05-07 20:20 36.64698 -105.53287 14384 ft 154 kts 339°
2026-05-07 20:21 36.65723 -105.53679 14403 ft 153 kts 339°
2026-05-07 20:21 36.66739 -105.54076 14427 ft 152 kts 338°
2026-05-07 20:21 36.67741 -105.54475 14450 ft 150 kts 338°
2026-05-07 20:21 36.68727 -105.54874 14485 ft 148 kts 338°
2026-05-07 20:22 36.69687 -105.55262 14499 ft 143 kts 338°
2026-05-07 20:22 36.70648 -105.55635 14521 ft 146 kts 338°
2026-05-07 20:22 36.71610 -105.56023 14600 ft 144 kts 337°
2026-05-07 20:22 36.72560 -105.56413 14681 ft 144 kts 337°
2026-05-07 20:23 36.73510 -105.56795 14743 ft 142 kts 337°
2026-05-07 20:23 36.74455 -105.57173 14798 ft 142 kts 338°
2026-05-07 20:23 36.75401 -105.57560 14844 ft 144 kts 337°
2026-05-07 20:23 36.76349 -105.57939 14906 ft 143 kts 337°
2026-05-07 20:24 36.77288 -105.58308 14955 ft 142 kts 337°
2026-05-07 20:24 36.78229 -105.58686 15010 ft 142 kts 337°
2026-05-07 20:24 36.79175 -105.59067 15061 ft 143 kts 337°
2026-05-07 20:24 36.80105 -105.59436 15106 ft 142 kts 337°
2026-05-07 20:25 36.81037 -105.59805 15152 ft 140 kts 337°
2026-05-07 20:25 36.81970 -105.60181 15190 ft 140 kts 337°
2026-05-07 20:25 36.82905 -105.60563 15229 ft 142 kts 337°
2026-05-07 20:25 36.83842 -105.60942 15266 ft 141 kts 337°
2026-05-07 20:26 36.84775 -105.61312 15298 ft 140 kts 337°
2026-05-07 20:26 36.85707 -105.61689 15331 ft 141 kts 337°
2026-05-07 20:26 36.86648 -105.62075 15364 ft 142 kts 337°
2026-05-07 20:26 36.87584 -105.62450 15410 ft 141 kts 337°
2026-05-07 20:27 36.88506 -105.62809 15495 ft 136 kts 337°
2026-05-07 20:27 36.89407 -105.63159 15562 ft 135 kts 337°
2026-05-07 20:27 36.90296 -105.63514 15613 ft 134 kts 337°
2026-05-07 20:27 36.91172 -105.63861 15669 ft 131 kts 336°
2026-05-07 20:28 36.92034 -105.64205 15704 ft 130 kts 336°
2026-05-07 20:28 36.92896 -105.64572 15714 ft 131 kts 336°
2026-05-07 20:28 36.93760 -105.64942 15748 ft 131 kts 337°
2026-05-07 20:28 36.94615 -105.65299 15778 ft 131 kts 337°
2026-05-07 20:29 36.95481 -105.65649 15814 ft 131 kts 338°
2026-05-07 20:29 36.96350 -105.65991 15853 ft 131 kts 338°
2026-05-07 20:29 36.97220 -105.66330 15881 ft 131 kts 338°
2026-05-07 20:29 36.98088 -105.66667 15903 ft 131 kts 338°
2026-05-07 20:30 36.98958 -105.67005 15923 ft 131 kts 338°
2026-05-07 20:30 36.99826 -105.67344 15949 ft 131 kts 338°
2026-05-07 20:30 37.00699 -105.67691 15955 ft 133 kts 337°
2026-05-07 20:30 37.01589 -105.68052 15949 ft 136 kts 337°
2026-05-07 20:31 37.02494 -105.68422 15956 ft 137 kts 337°
2026-05-07 20:31 37.03403 -105.68793 15947 ft 138 kts 337°
2026-05-07 20:31 37.04321 -105.69170 15923 ft 140 kts 337°
2026-05-07 20:31 37.05248 -105.69551 15913 ft 141 kts 338°
2026-05-07 20:32 37.06183 -105.69932 15893 ft 142 kts 338°
2026-05-07 20:32 37.07124 -105.70313 15884 ft 142 kts 338°
2026-05-07 20:32 37.08067 -105.70692 15872 ft 143 kts 338°
2026-05-07 20:32 37.09021 -105.71076 15839 ft 145 kts 338°
2026-05-07 20:33 37.09988 -105.71465 15815 ft 147 kts 338°
2026-05-07 20:33 37.10968 -105.71858 15794 ft 149 kts 338°
2026-05-07 20:33 37.11961 -105.72257 15750 ft 151 kts 338°
2026-05-07 20:33 37.12972 -105.72665 15705 ft 154 kts 338°
2026-05-07 20:34 37.13992 -105.73073 15683 ft 153 kts 338°
2026-05-07 20:34 37.15003 -105.73469 15675 ft 152 kts 338°
2026-05-07 20:34 37.16009 -105.73870 15646 ft 153 kts 338°
2026-05-07 20:34 37.17027 -105.74283 15604 ft 154 kts 338°
2026-05-07 20:35 37.18051 -105.74702 15562 ft 156 kts 338°
2026-05-07 20:35 37.19094 -105.75132 15490 ft 159 kts 338°
2026-05-07 20:35 37.20150 -105.75571 15425 ft 160 kts 338°
2026-05-07 20:35 37.21209 -105.76005 15362 ft 160 kts 338°
2026-05-07 20:36 37.22269 -105.76434 15314 ft 159 kts 338°
2026-05-07 20:36 37.23324 -105.76858 15251 ft 159 kts 338°
2026-05-07 20:36 37.24378 -105.77279 15184 ft 159 kts 338°
2026-05-07 20:36 37.25438 -105.77705 15107 ft 161 kts 338°
2026-05-07 20:37 37.26502 -105.78137 15025 ft 162 kts 338°
2026-05-07 20:37 37.27575 -105.78573 14996 ft 163 kts 338°
2026-05-07 20:37 37.28656 -105.79013 14918 ft 163 kts 338°
2026-05-07 20:37 37.29742 -105.79455 14834 ft 165 kts 338°
2026-05-07 20:38 37.30848 -105.79910 14707 ft 169 kts 338°
2026-05-07 20:38 37.31981 -105.80373 14572 ft 173 kts 338°
2026-05-07 20:38 37.33141 -105.80846 14436 ft 177 kts 338°
2026-05-07 20:38 37.34323 -105.81328 14278 ft 180 kts 339°
2026-05-07 20:39 37.35510 -105.81809 14112 ft 184 kts 340°
2026-05-07 20:39 37.36760 -105.82225 13933 ft 187 kts 344°
2026-05-07 20:39 37.38049 -105.82501 13796 ft 187 kts 349°
2026-05-07 20:39 37.39369 -105.82656 13568 ft 193 kts 352°
2026-05-07 20:40 37.40720 -105.82746 13367 ft 196 kts 354°
2026-05-07 20:40 37.42083 -105.82804 13234 ft 195 kts 355°
2026-05-07 20:40 37.43441 -105.82804 13127 ft 193 kts 357°
2026-05-07 20:40 37.44750 -105.82915 13097 ft 188 kts 347°
2026-05-07 20:41 37.46058 -105.83224 12836 ft 194 kts 346°
2026-05-07 20:41 37.47391 -105.83559 12619 ft 197 kts 346°
2026-05-07 20:41 37.48756 -105.83850 12416 ft 200 kts 348°
2026-05-07 20:41 37.50131 -105.84083 12277 ft 198 kts 352°
2026-05-07 20:42 37.51486 -105.84249 12232 ft 192 kts 351°
2026-05-07 20:42 37.52818 -105.84441 12073 ft 193 kts 350°
2026-05-07 20:42 37.54161 -105.84671 11915 ft 192 kts 349°
2026-05-07 20:42 37.55432 -105.84902 11947 ft 184 kts 350°
2026-05-07 20:43 37.56740 -105.85101 11715 ft 190 kts 352°
2026-05-07 20:43 37.58037 -105.85236 11714 ft 185 kts 352°
2026-05-07 20:43 37.59331 -105.85466 11480 ft 190 kts 347°
2026-05-07 20:43 37.60650 -105.85790 11243 ft 196 kts 346°
2026-05-07 20:44 37.62005 -105.86123 11013 ft 199 kts 348°
2026-05-07 20:44 37.63324 -105.86393 11038 ft 188 kts 350°
2026-05-07 20:44 37.64610 -105.86597 10994 ft 183 kts 352°
2026-05-07 20:44 37.65865 -105.86786 10948 ft 180 kts 350°
2026-05-07 20:45 37.67093 -105.86979 10917 ft 176 kts 351°
2026-05-07 20:45 37.68299 -105.87159 10893 ft 173 kts 351°
2026-05-07 20:45 37.69487 -105.87335 10848 ft 172 kts 351°
2026-05-07 20:45 37.70669 -105.87518 10803 ft 170 kts 351°
2026-05-07 20:46 37.71832 -105.87703 10780 ft 169 kts 351°
2026-05-07 20:46 37.73035 -105.87900 10756 ft 179 kts 351°
2026-05-07 20:46 37.74288 -105.88112 10756 ft 184 kts 351°
2026-05-07 20:46 37.75562 -105.88327 10799 ft 186 kts 351°
2026-05-07 20:47 37.76850 -105.88546 10832 ft 187 kts 350°
2026-05-07 20:47 37.78143 -105.88765 10887 ft 188 kts 350°
2026-05-07 20:47 37.79419 -105.88981 10938 ft 188 kts 350°
2026-05-07 20:47 37.80713 -105.89195 11011 ft 187 kts 350°
2026-05-07 20:48 37.81999 -105.89399 11083 ft 186 kts 350°
2026-05-07 20:48 37.83280 -105.89605 11158 ft 186 kts 349°
2026-05-07 20:48 37.84559 -105.89820 11226 ft 185 kts 349°
2026-05-07 20:48 37.85836 -105.90037 11282 ft 185 kts 349°
2026-05-07 20:49 37.87111 -105.90257 11336 ft 185 kts 349°
2026-05-07 20:49 37.88387 -105.90475 11385 ft 185 kts 349°
2026-05-07 20:49 37.89664 -105.90692 11437 ft 185 kts 349°
2026-05-07 20:49 37.90939 -105.90910 11495 ft 185 kts 349°
2026-05-07 20:50 37.92211 -105.91125 11552 ft 184 kts 349°
2026-05-07 20:50 37.93480 -105.91340 11602 ft 184 kts 349°
2026-05-07 20:50 37.94750 -105.91555 11633 ft 184 kts 348°
2026-05-07 20:50 37.96018 -105.91770 11678 ft 184 kts 349°
2026-05-07 20:51 37.97287 -105.91985 11721 ft 184 kts 348°
2026-05-07 20:51 37.98555 -105.92201 11770 ft 184 kts 348°
2026-05-07 20:51 37.99823 -105.92415 11815 ft 184 kts 348°
2026-05-07 20:51 38.01090 -105.92630 11872 ft 184 kts 348°
2026-05-07 20:52 38.02356 -105.92846 11899 ft 184 kts 348°
2026-05-07 20:52 38.03621 -105.93045 11927 ft 182 kts 348°
2026-05-07 20:52 38.04876 -105.93214 11966 ft 182 kts 347°
2026-05-07 20:52 38.06133 -105.93427 12011 ft 183 kts 347°
2026-05-07 20:53 38.07392 -105.93657 12048 ft 182 kts 347°
2026-05-07 20:53 38.08640 -105.93861 12086 ft 182 kts 346°
2026-05-07 20:53 38.09890 -105.94103 12130 ft 182 kts 346°
2026-05-07 20:53 38.11140 -105.94339 12164 ft 181 kts 346°
2026-05-07 20:54 38.12381 -105.94556 12193 ft 181 kts 346°
2026-05-07 20:54 38.13634 -105.94786 12226 ft 183 kts 347°
2026-05-07 20:54 38.14884 -105.94999 12270 ft 180 kts 347°
2026-05-07 20:54 38.16131 -105.95186 12299 ft 181 kts 347°
2026-05-07 20:55 38.17382 -105.95392 12329 ft 183 kts 346°
2026-05-07 20:55 38.18636 -105.95613 12360 ft 181 kts 347°
2026-05-07 20:55 38.19870 -105.95814 12399 ft 182 kts 347°
2026-05-07 20:55 38.21126 -105.96034 12428 ft 183 kts 347°
2026-05-07 20:56 38.22375 -105.96246 12452 ft 180 kts 346°
2026-05-07 20:56 38.23620 -105.96452 12478 ft 181 kts 346°
2026-05-07 20:56 38.24872 -105.96683 12504 ft 182 kts 347°
2026-05-07 20:56 38.26135 -105.96896 12543 ft 183 kts 347°
2026-05-07 20:57 38.27405 -105.97093 12574 ft 184 kts 346°
2026-05-07 20:57 38.28678 -105.97315 12608 ft 185 kts 347°
2026-05-07 20:57 38.29950 -105.97528 12625 ft 184 kts 347°
2026-05-07 20:57 38.31221 -105.97729 12658 ft 184 kts 346°
2026-05-07 20:58 38.32490 -105.97955 12690 ft 184 kts 346°
2026-05-07 20:58 38.33764 -105.98176 12720 ft 184 kts 346°
2026-05-07 20:58 38.35038 -105.98384 12756 ft 184 kts 346°
2026-05-07 20:58 38.36308 -105.98616 12792 ft 184 kts 346°
2026-05-07 20:59 38.37576 -105.98840 12837 ft 183 kts 346°
2026-05-07 20:59 38.38842 -105.99060 12881 ft 183 kts 346°
2026-05-07 20:59 38.40108 -105.99277 12928 ft 183 kts 345°
2026-05-07 20:59 38.41345 -105.99664 12963 ft 180 kts 335°
2026-05-07 21:00 38.42450 -106.00357 13011 ft 174 kts 323°
2026-05-07 21:00 38.43416 -106.01288 13090 ft 173 kts 317°
2026-05-07 21:00 38.44320 -106.02299 13115 ft 173 kts 315°
2026-05-07 21:00 38.45218 -106.03316 13127 ft 171 kts 316°
2026-05-07 21:01 38.46119 -106.04300 13140 ft 172 kts 317°
2026-05-07 21:01 38.47052 -106.05285 13183 ft 175 kts 318°
2026-05-07 21:01 38.48025 -106.06254 13109 ft 178 kts 320°
2026-05-07 21:01 38.49017 -106.07175 13116 ft 177 kts 321°
2026-05-07 21:02 38.50025 -106.08069 13144 ft 177 kts 322°
2026-05-07 21:02 38.51038 -106.08957 13148 ft 176 kts 322°
2026-05-07 21:02 38.52057 -106.09836 13149 ft 178 kts 323°
2026-05-07 21:02 38.52735 -106.10423 13149 ft 177 kts 323°
2026-05-07 21:03 38.53764 -106.11290 13157 ft 177 kts 323°
2026-05-07 21:03 38.54792 -106.12145 13166 ft 177 kts 323°
2026-05-07 21:03 38.55821 -106.13009 13168 ft 176 kts 323°
2026-05-07 21:03 38.56843 -106.13882 13154 ft 177 kts 323°
2026-05-07 21:04 38.57867 -106.14760 13124 ft 178 kts 323°
2026-05-07 21:04 38.58886 -106.15627 13157 ft 173 kts 323°
2026-05-07 21:04 38.59889 -106.16478 13189 ft 171 kts 322°
2026-05-07 21:04 38.60881 -106.17330 13209 ft 171 kts 322°
2026-05-07 21:05 38.61929 -106.17965 13270 ft 164 kts 348°
2026-05-07 21:05 38.63037 -106.17947 13496 ft 157 kts 356°
2026-05-07 21:05 38.64102 -106.17841 13598 ft 150 kts 357°
2026-05-07 21:05 38.65126 -106.17732 13725 ft 145 kts 357°
2026-05-07 21:06 38.66124 -106.17645 13867 ft 141 kts 348°
2026-05-07 21:06 38.67065 -106.17856 14018 ft 135 kts 337°
2026-05-07 21:06 38.67932 -106.18246 14165 ft 129 kts 323°
2026-05-07 21:06 38.68573 -106.18958 14254 ft 120 kts 307°
2026-05-07 21:07 38.69095 -106.19765 14318 ft 117 kts 305°
2026-05-07 21:07 38.69590 -106.20569 14349 ft 114 kts 305°
2026-05-07 21:07 38.70078 -106.21377 14371 ft 118 kts 305°
2026-05-07 21:07 38.70584 -106.22216 14428 ft 117 kts 305°
2026-05-07 21:08 38.71078 -106.23031 14479 ft 119 kts 305°
2026-05-07 21:08 38.71585 -106.23879 14522 ft 117 kts 305°
2026-05-07 21:08 38.72079 -106.24710 14581 ft 115 kts 305°
2026-05-07 21:08 38.72561 -106.25515 14598 ft 116 kts 305°
2026-05-07 21:09 38.73056 -106.26335 14564 ft 115 kts 305°
2026-05-07 21:09 38.73539 -106.27134 14581 ft 113 kts 305°
2026-05-07 21:09 38.74024 -106.27922 14548 ft 112 kts 305°
2026-05-07 21:09 38.74492 -106.28671 14579 ft 104 kts 305°
2026-05-07 21:10 38.74993 -106.29361 14588 ft 109 kts 322°
2026-05-07 21:10 38.75712 -106.29676 14569 ft 112 kts 346°
2026-05-07 21:10 38.76491 -106.29828 14610 ft 114 kts 337°
2026-05-07 21:10 38.77255 -106.30173 14600 ft 120 kts 326°
2026-05-07 21:11 38.77983 -106.30753 14559 ft 123 kts 317°
2026-05-07 21:11 38.78648 -106.31459 14526 ft 124 kts 314°
2026-05-07 21:11 38.79897 -106.32996 14555 ft 126 kts 313°
2026-05-07 21:12 38.80553 -106.33753 14545 ft 127 kts 316°
2026-05-07 21:12 38.81231 -106.34465 14549 ft 126 kts 317°
2026-05-07 21:12 38.81925 -106.35150 14504 ft 126 kts 319°
2026-05-07 21:12 38.82638 -106.35813 14439 ft 126 kts 319°
2026-05-07 21:13 38.83346 -106.36454 14393 ft 123 kts 320°
2026-05-07 21:13 38.84050 -106.37088 14369 ft 121 kts 320°
2026-05-07 21:13 38.84730 -106.37674 14439 ft 115 kts 320°
2026-05-07 21:13 38.85388 -106.38246 14476 ft 112 kts 320°
2026-05-07 21:14 38.86029 -106.38805 14414 ft 112 kts 320°
2026-05-07 21:14 38.86658 -106.39353 14379 ft 104 kts 320°
2026-05-07 21:14 38.87231 -106.39825 14370 ft 93 kts 319°
2026-05-07 21:14 38.87792 -106.40276 14251 ft 96 kts 320°
2026-05-07 21:15 38.88369 -106.40744 14143 ft 104 kts 319°
2026-05-07 21:15 38.88955 -106.41351 14052 ft 106 kts 308°
2026-05-07 21:15 38.89382 -106.42090 14041 ft 102 kts 296°
2026-05-07 21:15 38.89672 -106.42958 13864 ft 112 kts 289°
2026-05-07 21:16 38.89918 -106.43958 13822 ft 118 kts 290°
2026-05-07 21:16 38.90183 -106.44887 13833 ft 107 kts 293°
2026-05-07 21:16 38.90515 -106.45765 13771 ft 116 kts 297°
2026-05-07 21:16 38.90974 -106.46765 13374 ft 146 kts 301°
2026-05-07 21:17 38.91505 -106.47914 13380 ft 147 kts 300°
2026-05-07 21:17 38.92022 -106.49037 13414 ft 145 kts 300°
2026-05-07 21:17 38.92546 -106.50129 13582 ft 143 kts 302°
2026-05-07 21:17 38.93097 -106.51169 13659 ft 137 kts 306°
2026-05-07 21:18 38.93714 -106.52106 13659 ft 141 kts 309°
2026-05-07 21:18 38.94372 -106.52984 13865 ft 132 kts 313°
2026-05-07 21:18 38.95047 -106.53718 13979 ft 124 kts 318°
2026-05-07 21:18 38.95770 -106.54294 14013 ft 122 kts 325°
2026-05-07 21:19 38.96517 -106.54759 14037 ft 120 kts 328°
2026-05-07 21:19 38.97296 -106.55210 14010 ft 124 kts 328°
2026-05-07 21:19 38.98091 -106.55681 14065 ft 125 kts 332°
2026-05-07 21:19 38.98942 -106.55988 14025 ft 131 kts 340°
2026-05-07 21:20 38.99831 -106.56149 14062 ft 128 kts 344°
2026-05-07 21:20 39.00743 -106.56257 14172 ft 135 kts 346°
2026-05-07 21:20 39.01668 -106.56329 14275 ft 130 kts 348°
2026-05-07 21:20 39.02566 -106.56336 14366 ft 127 kts 348°
2026-05-07 21:21 39.03439 -106.56417 14400 ft 128 kts 341°
2026-05-07 21:21 39.04337 -106.56650 14400 ft 137 kts 339°
2026-05-07 21:21 39.05272 -106.56963 14277 ft 144 kts 337°
2026-05-07 21:21 39.06245 -106.57306 14375 ft 143 kts 337°
2026-05-07 21:22 39.07182 -106.57617 14222 ft 134 kts 337°
2026-05-07 21:22 39.08048 -106.57945 14110 ft 135 kts 327°
2026-05-07 21:22 39.08851 -106.58602 14036 ft 136 kts 319°
2026-05-07 21:22 39.09667 -106.59396 13939 ft 154 kts 315°
2026-05-07 21:23 39.10529 -106.60307 13850 ft 166 kts 316°
2026-05-07 21:23 39.11435 -106.61236 13871 ft 167 kts 317°
2026-05-07 21:23 39.12351 -106.62196 13874 ft 175 kts 316°
2026-05-07 21:23 39.13280 -106.63171 13851 ft 170 kts 316°
2026-05-07 21:24 39.14200 -106.64115 13829 ft 165 kts 317°
2026-05-07 21:24 39.15103 -106.65048 13869 ft 172 kts 316°
2026-05-07 21:24 39.16043 -106.66038 13846 ft 178 kts 317°
2026-05-07 21:24 39.16998 -106.67038 13851 ft 175 kts 317°
2026-05-07 21:25 39.17992 -106.67904 13858 ft 172 kts 324°
2026-05-07 21:25 39.19035 -106.68640 13870 ft 170 kts 325°
2026-05-07 21:25 39.20082 -106.69374 13890 ft 172 kts 326°
2026-05-07 21:25 39.21046 -106.70333 13862 ft 178 kts 304°
2026-05-07 21:26 39.21672 -106.71690 13874 ft 175 kts 298°
2026-05-07 21:26 39.22234 -106.73088 13885 ft 175 kts 298°
2026-05-07 21:26 39.22590 -106.74566 13871 ft 175 kts 274°
2026-05-07 21:26 39.22378 -106.76174 13608 ft 196 kts 262°
2026-05-07 21:27 39.22458 -106.77947 13374 ft 196 kts 295°
2026-05-07 21:27 39.23198 -106.79396 12923 ft 206 kts 308°
2026-05-07 21:27 39.24152 -106.80849 12063 ft 211 kts 310°
2026-05-07 21:27 39.25116 -106.82190 11588 ft 201 kts 314°
2026-05-07 21:28 39.26148 -106.83365 11134 ft 193 kts 314°
2026-05-07 21:28 39.26996 -106.84571 10861 ft 171 kts 308°
2026-05-07 21:28 39.27737 -106.85621 10637 ft 145 kts 312°
2026-05-07 21:28 39.28393 -106.86497 10305 ft 130 kts 307°
2026-05-07 21:29 39.28924 -106.87389 10025 ft 122 kts 301°
2026-05-07 21:29 39.29220 -106.88347 9407 ft 121 kts 266°
2026-05-07 21:29 39.28806 -106.89300 8854 ft 126 kts 220°
2026-05-07 21:29 39.27944 -106.89575 8431 ft 134 kts 175°
2026-05-07 21:30 39.27056 -106.89130 8131 ft 142 kts 157°
2026-05-07 21:30 39.26174 -106.88620 8115 ft 136 kts 163°
2026-05-07 21:30 39.25320 -106.88230 8081 ft 131 kts 168°
2026-05-07 21:30 39.24427 -106.87884 7911 ft 133 kts 167°
2026-05-07 21:31 39.23619 -106.87503 7760 ft 114 kts 168°
2026-05-07 21:31 39.22951 -106.87194 7703 ft 83 kts 158°
2026-05-07 21:31 39.22497 -106.86970 7736 ft 61 kts 161°
2026-05-07 21:31 39.22343 -106.86889 7746 ft 11 kts 126°
2026-05-07 21:32 39.22330 -106.86839 7747 ft 3 kts 89°
2026-05-07 21:32 39.22330 -106.86826 7747 ft 3 kts 81°
2026-05-07 21:32 39.22358 -106.86740 7751 ft 7 kts 68°
2026-05-07 21:32 39.22361 -106.86732 7751 ft 0 kts 51°